TimeEDT,TemperatureF,Dew PointF,Humidity,Sea Level PressureIn,VisibilityMPH,Wind Direction,Wind SpeedMPH,Gust SpeedMPH,PrecipitationIn,Events,Conditions,WindDirDegrees,DateUTC
12:56 AM,68.0,54.0,61,30.19,10.0,NW,6.9,-,N/A,,Clear,320,2011-10-10 04:56:00
1:56 AM,68.0,54.0,61,30.18,10.0,NW,8.1,-,N/A,,Clear,320,2011-10-10 05:56:00
2:56 AM,68.0,54.0,61,30.17,10.0,NW,6.9,-,N/A,,Clear,310,2011-10-10 06:56:00
3:56 AM,66.9,54.0,63,30.17,10.0,NW,6.9,-,N/A,,Clear,310,2011-10-10 07:56:00
4:56 AM,64.4,53.6,68,30.17,10.0,NW,8.1,-,N/A,,Clear,320,2011-10-10 08:56:00
5:56 AM,64.0,53.1,67,30.17,10.0,NW,8.1,-,N/A,,Clear,320,2011-10-10 09:56:00
6:56 AM,62.6,53.6,72,30.16,10.0,North,6.9,-,N/A,,Clear,350,2011-10-10 10:56:00
7:56 AM,66.9,53.1,61,30.18,10.0,NNW,8.1,-,N/A,,Clear,330,2011-10-10 11:56:00
10:56 AM,75.9,53.1,45,30.16,10.0,NNW,11.5,20.7,N/A,,Clear,340,2011-10-10 14:56:00
11:56 AM,78.1,54.0,43,30.14,10.0,NNW,9.2,17.3,N/A,,Clear,330,2011-10-10 15:56:00
12:56 PM,79.0,54.0,42,30.12,10.0,NNW,10.4,-,N/A,,Clear,330,2011-10-10 16:56:00
1:56 PM,79.0,55.0,44,30.10,10.0,NNW,5.8,-,N/A,,Clear,330,2011-10-10 17:56:00
2:56 PM,80.1,57.0,45,30.09,10.0,North,8.1,-,N/A,,Clear,10,2011-10-10 18:56:00
3:56 PM,79.0,57.0,47,30.08,10.0,North,5.8,-,N/A,,Clear,350,2011-10-10 19:56:00
4:56 PM,77.0,59.0,54,30.08,10.0,NNW,3.5,-,N/A,,Clear,340,2011-10-10 20:56:00
5:56 PM,72.0,60.1,66,30.08,10.0,Calm,Calm,-,N/A,,Clear,0,2011-10-10 21:56:00
6:56 PM,66.0,60.1,81,30.09,10.0,Calm,Calm,-,N/A,,Clear,0,2011-10-10 22:56:00
7:56 PM,63.0,60.1,90,30.09,10.0,Calm,Calm,-,N/A,,Clear,0,2011-10-10 23:56:00
8:56 PM,62.1,57.9,86,30.09,10.0,Calm,Calm,-,N/A,,Clear,0,2011-10-11 00:56:00
9:56 PM,66.0,60.1,81,30.11,10.0,NNW,4.6,-,N/A,,Clear,330,2011-10-11 01:56:00
10:56 PM,66.9,57.9,73,30.12,10.0,NNW,5.8,-,N/A,,Clear,340,2011-10-11 02:56:00
11:56 PM,64.9,55.0,70,30.14,10.0,NNE,8.1,-,N/A,,Clear,20,2011-10-11 03:56:00